EW0121 Weather Reports


time (UTC)temp
C
wind
direction
speed
KPH
gust
KPH
rain 1hr
cm
rain 24hr
cm
rain mn
cm
humidity
%
barometer
mb
20260505213008 10 352 3.2 14.5 0.00 0.00 0.00 71 1014.1
20260505211511 10 334 4.8 12.9 0.00 0.00 0.00 70 1014.0
20260505210010 10 5 4.8 14.5 0.00 0.00 0.00 70 1014.0
20260505204511 11 24 6.4 12.9 0.00 0.00 0.00 69 1014.1
20260505203010 11 328 4.8 11.3 0.00 0.00 0.00 69 1014.1
20260505201512 11 352 4.8 11.3 0.00 0.00 0.00 69 1013.8
20260505200015 11 351 4.8 14.5 0.00 0.00 0.00 68 1013.8
20260505194527 11 30 4.8 14.5 0.00 0.00 0.00 67 1013.6
20260505193031 11 331 4.8 17.7 0.00 0.00 0.00 65 1013.5
20260505191517 12 313 8.0 16.1 0.00 0.00 0.00 62 1013.5
20260505190017 12 12 8.0 16.1 0.00 0.00 0.00 60 1013.3
20260505184516 13 346 9.7 17.7 0.00 0.00 0.00 59 1013.3
20260505183015 13 329 4.8 17.7 0.00 0.00 0.00 58 1013.1
20260505181517 14 58 8.0 20.9 0.00 0.00 0.00 56 1013.1
20260505180025 15 22 9.7 20.9 0.00 0.00 0.00 55 1013.1
20260505174529 15 329 6.4 20.9 0.00 0.00 0.00 55 1013.1
20260505173020 15 360 1.6 14.5 0.00 0.00 0.00 55 1013.2
20260505171517 15 9 4.8 17.7 0.00 0.00 0.00 55 1013.3
20260505170026 15 344 3.2 16.1 0.00 0.00 0.00 54 1013.3
20260505164520 15 314 9.7 19.3 0.00 0.00 0.00 55 1013.4
20260505163022 15 17 8.0 19.3 0.00 0.00 0.00 54 1013.4
20260505161502 15 9 6.4 17.7 0.00 0.00 0.00 52 1013.4
20260505153008 17 269 8.0 16.1 0.00 0.00 0.00 48 1013.2
20260505151512 16 323 8.0 19.3 0.00 0.00 0.00 52 1013.3
20260505124517 16 341 3.2 16.1 0.00 0.00 0.00 56 1013.8
20260505123004 17 352 3.2 14.5 0.00 0.00 0.00 53 1013.9
20260505121509 16 327 6.4 20.9 0.00 0.00 0.00 56 1014.0
20260505120010 17 79 6.4 24.1 0.00 0.00 0.00 52 1014.0
20260505114516 16 5 6.4 20.9 0.00 0.00 0.00 52 1014.0
20260505113031 16 352 11.3 22.5 0.00 0.00 0.00 53 1014.1
20260505111505 16 14 4.8 19.3 0.00 0.00 0.00 54 1014.3
20260505101526 14 46 6.4 17.7 0.00 0.00 0.00 60 1014.7
20260505100005 14 284 6.4 16.1 0.00 0.00 0.00 59 1014.7
20260505094510 13 352 4.8 24.1 0.00 0.00 0.00 61 1014.8
20260505093015 13 29 6.4 16.1 0.00 0.05 0.00 60 1014.7
20260505091520 13 352 4.8 20.9 0.00 0.05 0.00 63 1014.7
20260505090027 13 11 9.7 20.9 0.00 0.05 0.00 65 1014.7
20260505084515 12 5 6.4 14.5 0.00 0.05 0.00 67 1014.7
20260505083014 12 13 11.3 25.7 0.00 0.05 0.00 70 1014.7
20260505081523 12 44 4.8 22.5 0.00 0.05 0.00 71 1014.9
20260505080031 11 5 1.6 19.3 0.00 0.05 0.00 75 1015.1
20260505074524 11 324 6.4 16.1 0.00 0.05 0.00 74 1015.1
20260505073009 11 350 4.8 17.7 0.00 0.05 0.00 76 1015.1
20260505071512 10 352 3.2 16.1 0.00 0.05 0.00 77 1015.1
20260505070021 10 341 6.4 19.3 0.00 0.05 0.00 77 1015.1
20260505064533 9 24 1.6 11.3 0.00 0.05 0.00 82 1015.0
20260505063026 8 22 3.2 9.7 0.00 0.05 0.00 85 1015.0
20260505061525 8 352 3.2 9.7 0.00 0.05 0.00 88 1015.1
20260505060023 8 347 1.6 6.4 0.00 0.05 0.00 89 1015.0
20260505054521 7 26 1.6 6.4 0.00 0.05 0.00 90 1014.9
20260505053026 7 349 0.0 1.6 0.00 0.05 0.00 89 1015.0
20260505051528 6 17 0.0 3.2 0.00 0.05 0.00 89 1014.8
20260505041508 7 128 0.0 3.2 0.00 0.05 0.00 89 1015.2
20260505040013 7 28 0.0 1.6 0.00 0.05 0.00 88 1015.3
20260505034518 7 26 0.0 4.8 0.00 0.05 0.00 88 1015.1
20260505033020 7 346 3.2 4.8 0.00 0.05 0.00 88 1014.9
20260505031507 8 352 0.0 11.3 0.00 0.05 0.00 87 1014.9
20260505030012 8 5 3.2 16.1 0.00 0.05 0.00 87 1014.9
20260505024534 8 344 3.2 8.0 0.00 0.05 0.00 87 1015.0
20260505023020 9 341 3.2 8.0 0.00 0.05 0.00 86 1015.0
20260505021524 9 9 1.6 6.4 0.00 0.05 0.00 86 1015.2
20260505020007 10 336 1.6 4.8 0.00 0.05 0.00 86 1015.2
20260505014512 10 16 1.6 6.4 0.00 0.05 0.00 86 1015.3
20260505013023 10 352 0.0 3.2 0.00 0.05 0.00 86 1015.3
20260505011522 10 16 0.0 3.2 0.00 0.05 0.00 86 1015.4
20260505010024 10 345 0.0 3.2 0.00 0.05 0.00 86 1015.4
20260505004515 10 24 0.0 1.6 0.00 0.05 0.00 86 1015.6
20260505003016 10 40 0.0 3.2 0.00 0.05 0.00 85 1015.5
20260505001518 10 109 0.0 3.2 0.00 0.05 0.00 86 1015.6
20260505000031 10 51 0.0 3.2 0.00 0.05 0.00 85 1015.7
20260504234528 10 46 0.0 3.2 0.00 0.05 0.00 85 1015.8
20260504233015 10 32 1.6 3.2 0.00 0.05 0.00 85 1015.7
20260504231525 10 5 1.6 3.2 0.00 0.05 0.00 85 1015.8
20260504230023 10 352 0.0 4.8 0.00 0.05 0.00 85 1016.0
20260504224528 10 29 0.0 3.2 0.00 0.05 0.05 85 1015.9
20260504223028 10 164 0.0 4.8 0.00 0.05 0.05 84 1015.9
20260504221514 10 123 1.6 4.8 0.00 0.05 0.05 84 1015.9
20260504220022 10 5 0.0 3.2 0.00 0.05 0.05 84 1016.1
20260504214522 10 5 1.6 4.8 0.00 0.05 0.05 84 1015.9